User: anonymous   Login
Location: Hopkins Observatory
(42.6965°N, 73.1843°W)
Time: 21:09:18
(UTC-05:00)
Language:

UOSAT-12 - Orbit

View from above orbital plane
View from above orbital plane
View from above satellite
View from above satellite

Ground track
Ground track

The orbit data is extracted from the following two-line orbital elements,

1 25693U 99021A   18016.87373736 -.00000126 +00000-0 +31405-5 0  9994
2 25693 064.5544 187.0632 0047597 284.1939 075.3881 14.80779502011490
Epoch (UTC): 16 January 2018 20:58:10
Eccentricity: 0.0047597
inclination: 64.5544°
perigee height: 593 km
apogee height: 660 km
right ascension of ascending node: 187.0632°
argument of perigee: 284.1939°
revolutions per day: 14.80779502
mean anomaly at epoch: 75.3881°
orbit number at epoch: 1149

The dashed part of the orbit path shows where the satellite is in the earth's shadow,  

DLR